Rhinelander, WI

1:14 AM CDT on April 30, 2017 (GMT -0500)
Rhinelander-Oneida County

Weather History for KRHI - December, 2014

Change the Weather History Date:

Tuesday, December 2, 2014

  Actual Average Record
Temperature  
Mean Temperature 7 °F 22 °F  
Max Temperature 19 °F 29 °F 62 °F (1998)
Min Temperature -6 °F 14 °F -21 °F (1976)
Degree Days  
Heating Degree Days 58 43  
Month to date heating degree days 127 86  
Since 1 July heating degree days 2648 2220  
Cooling Degree Days 0 0  
Month to date cooling degree days 0 0  
Year to date cooling degree days 148 261  
Moisture  
Dew Point 10 °F    
Average Humidity 82    
Maximum Humidity 92    
Minimum Humidity 71    
Precipitation  
Precipitation 0.08 in 0.06 in 0.80 in (1984)
Month to date precipitation 0.08 0.11  
Year to date precipitation 39.68 30.07  
Snow  
Snow 2.00 in - 6.00 in (1950)
Month to date snowfall 2.0  
Since 1 July snowfall 37.1  
Snow Depth 11.00 in    
Sea Level Pressure  
Sea Level Pressure 30.08 in    
Wind  
Wind Speed 10 mph (SSW)    
Max Wind Speed 21 mph    
Max Gust Speed 27 mph    
Visibility 4 miles    
Events Fog , Snow    
T = Trace of Precipitation, MM = Missing Value Source: NWS Daily Summary

Daily Weather History Graph

Daily Weather History Graph

Search for Another Location

Airport or City:

Trip Planner

Search our weather history database for the weather conditions in past years. The results will help you decide how hot, cold, wet, or windy it might be!

Date:

Astronomy

Dec. 02, 2014 Rise Set
Actual Time 7:19 AM CST 4:15 PM CST
Civil Twilight 6:45 AM CST 4:48 PM CST
Nautical Twilight 6:08 AM CST 5:26 PM CST
Astronomical Twilight 5:32 AM CST 6:01 PM CST
Moon 2:07 PM CST (12/2) 2:49 AM CST (12/2)
Length of Visible Light 10h 03m
Length of Day
8h 56m
Waxing Gibbous, 84% of the Moon is Illuminated
Dec 2
Waxing Gibbous
Dec 6
Full
Dec 14
Last Quarter
Dec 21
New
Dec 28
First Quarter

Hourly Weather History & Observations

Time (CST) Temp. Windchill Dew Point Humidity Pressure Visibility Wind Dir Wind Speed Gust Speed Precip Events Conditions
12:53 AM -4.0 °F -12.4 °F -11.0 °F 72% 30.56 in 10.0 mi SSE 3.5 mph - N/A   Clear
1:53 AM -2.9 °F -11.2 °F -9.9 °F 72% 30.54 in 10.0 mi South 3.5 mph - N/A   Clear
2:53 AM -0.0 °F -16.3 °F -4.0 °F 83% 30.50 in 10.0 mi South 10.4 mph 19.6 mph N/A   Clear
3:24 AM 1.9 °F -13.8 °F -0.9 °F 88% 30.34 in 6.0 mi South 10.4 mph - N/A   Scattered Clouds
3:32 AM 1.9 °F -12.9 °F -0.9 °F 88% 30.33 in 4.0 mi South 9.2 mph - N/A   Mostly Cloudy
3:53 AM 3.9 °F -12.2 °F -0.0 °F 84% 30.45 in 3.0 mi South 11.5 mph 19.6 mph N/A   Overcast
4:46 AM 6.1 °F -9.5 °F 3.0 °F 87% 30.26 in 2.0 mi South 11.5 mph 18.4 mph 0.00 in Snow Light Snow
4:53 AM 6.1 °F -9.5 °F 3.0 °F 87% 30.39 in 1.8 mi South 11.5 mph - 0.00 in Snow Light Snow
5:04 AM 7.0 °F -7.5 °F 5.0 °F 92% 30.24 in 2.5 mi South 10.4 mph - 0.00 in Snow Light Snow
5:53 AM 10.0 °F -4.5 °F 8.1 °F 92% 30.35 in 2.5 mi South 11.5 mph 19.6 mph 0.00 in Snow Light Snow
6:03 AM 10.0 °F -5.2 °F 8.1 °F 92% 30.20 in 3.0 mi South 12.7 mph - 0.00 in Snow Light Snow
6:53 AM 12.0 °F -3.4 °F 9.0 °F 88% 30.32 in 4.0 mi South 13.8 mph 21.9 mph 0.00 in   Overcast
7:34 AM 12.9 °F -0.9 °F 10.0 °F 88% 30.15 in 2.0 mi South 11.5 mph 21.9 mph N/A   Overcast
7:43 AM 12.9 °F -2.8 °F 10.0 °F 88% 30.13 in 1.8 mi South 15.0 mph 25.3 mph N/A   Overcast
7:53 AM 12.9 °F -0.9 °F 10.0 °F 88% 30.26 in 1.5 mi South 11.5 mph 27.6 mph 0.00 in Snow Light Snow
8:09 AM 12.9 °F -3.4 °F 10.0 °F 88% 30.14 in 2.0 mi South 16.1 mph - 0.00 in   Overcast
8:25 AM 12.9 °F -0.9 °F 10.0 °F 88% 30.12 in 4.0 mi South 11.5 mph - 0.00 in   Overcast
8:53 AM 14.0 °F 0.5 °F 10.0 °F 84% 30.24 in 10.0 mi South 11.5 mph - 0.00 in   Scattered Clouds
9:53 AM 16.0 °F 2.3 °F 10.9 °F 81% 30.21 in 10.0 mi South 12.7 mph - N/A   Scattered Clouds
10:53 AM 18.0 °F 5.4 °F 12.0 °F 78% 30.17 in 10.0 mi South 11.5 mph - N/A   Partly Cloudy
11:53 AM 19.0 °F 7.5 °F 12.0 °F 74% 30.14 in 10.0 mi SSW 10.4 mph - N/A   Partly Cloudy
12:53 PM 19.0 °F 6.1 °F 10.9 °F 71% 30.10 in 5.0 mi South 12.7 mph - 0.00 in Snow Light Snow
12:57 PM 18.0 °F 4.2 °F 12.0 °F 78% 29.98 in 1.8 mi South 13.8 mph - 0.00 in Snow Light Snow
1:06 PM 18.0 °F 5.4 °F 14.0 °F 84% 29.98 in 0.5 mi SSW 11.5 mph - 0.00 in Fog , Snow Snow
1:44 PM 17.1 °F 5.0 °F 14.0 °F 88% 29.95 in 0.5 mi SSW 10.4 mph - 0.01 in Fog , Snow Snow
1:53 PM 17.1 °F 5.0 °F 14.0 °F 88% 30.06 in 0.5 mi SSW 10.4 mph - 0.01 in Fog , Snow Snow
2:07 PM 17.1 °F 5.8 °F 14.0 °F 88% 29.94 in 0.2 mi SSW 9.2 mph - 0.01 in Fog , Snow Snow
2:20 PM 17.1 °F 5.0 °F 14.0 °F 88% 29.93 in 0.2 mi SSW 10.4 mph - 0.01 in Fog , Snow Heavy Snow
2:26 PM 17.1 °F 7.6 °F 14.0 °F 88% 29.92 in 0.5 mi SSW 6.9 mph 16.1 mph 0.01 in Fog , Snow Snow
2:42 PM 17.1 °F 6.6 °F 14.0 °F 88% 29.92 in 1.0 mi South 8.1 mph - 0.02 in Snow Light Snow
2:53 PM 17.1 °F 5.8 °F 14.0 °F 88% 30.03 in 1.2 mi SW 9.2 mph - 0.02 in Snow Light Snow
3:07 PM 17.1 °F 6.6 °F 14.0 °F 88% 29.91 in 0.8 mi South 8.1 mph - 0.00 in Snow Light Snow
3:36 PM 17.1 °F 6.6 °F 14.0 °F 88% 29.91 in 0.5 mi SSW 8.1 mph - 0.01 in Fog , Snow Snow
3:53 PM 17.1 °F 5.8 °F 14.0 °F 88% 30.01 in 0.8 mi SSW 9.2 mph - 0.01 in Snow Light Snow
4:02 PM 17.1 °F 6.6 °F 14.0 °F 88% 29.91 in 1.0 mi SSW 8.1 mph - 0.00 in Snow Light Snow
4:53 PM 18.0 °F 7.7 °F 14.0 °F 84% 30.01 in 1.8 mi SW 8.1 mph - 0.00 in Snow Light Snow
4:56 PM 18.0 °F 6.1 °F 14.0 °F 84% 29.90 in 2.0 mi SW 10.4 mph - 0.00 in Snow Light Snow
5:13 PM 18.0 °F 8.7 °F 15.1 °F 88% 29.90 in 3.0 mi SW 6.9 mph - 0.01 in Snow Light Snow
5:49 PM 17.6 °F 5.0 °F 15.8 °F 93% 29.90 in 2.0 mi SW 11.5 mph - 0.01 in Snow Light Snow
5:53 PM 18.0 °F 6.1 °F 15.1 °F 88% 30.00 in 1.8 mi SW 10.4 mph - 0.01 in Snow Light Snow
6:34 PM 18.0 °F 6.9 °F 15.1 °F 88% 29.89 in 1.2 mi SW 9.2 mph - 0.00 in Snow Light Snow
6:53 PM 18.0 °F 5.4 °F 15.1 °F 88% 29.99 in 1.0 mi SW 11.5 mph - 0.00 in Snow Light Snow
6:58 PM 18.0 °F 6.9 °F 15.1 °F 88% 29.89 in 0.8 mi SW 9.2 mph - 0.00 in Snow Light Snow
7:15 PM 18.0 °F 7.7 °F 15.1 °F 88% 29.89 in 1.2 mi SW 8.1 mph - 0.00 in Snow Light Snow
7:22 PM 18.0 °F 6.9 °F 15.1 °F 88% 29.88 in 3.0 mi SW 9.2 mph - 0.00 in Snow Light Snow
7:53 PM 18.0 °F 6.1 °F 14.0 °F 84% 29.97 in 7.0 mi WSW 10.4 mph - 0.00 in   Overcast
8:20 PM 18.0 °F 4.8 °F 14.0 °F 84% 29.89 in 8.0 mi WSW 12.7 mph - N/A   Overcast
8:30 PM 18.0 °F 5.4 °F 14.0 °F 84% 29.89 in 8.0 mi WSW 11.5 mph - N/A   Overcast
8:40 PM 18.0 °F 4.8 °F 14.0 °F 84% 29.88 in 8.0 mi WSW 12.7 mph - N/A   Overcast
8:53 PM 18.0 °F 6.9 °F 14.0 °F 84% 29.97 in 8.0 mi WSW 9.2 mph - N/A   Overcast
9:53 PM 18.0 °F 6.9 °F 14.0 °F 84% 29.96 in 8.0 mi WSW 9.2 mph - N/A   Overcast
10:53 PM 18.0 °F 3.6 °F 14.0 °F 84% 29.95 in 7.0 mi West 15.0 mph - 0.00 in   Overcast
11:53 PM 17.1 °F 4.3 °F 12.9 °F 84% 29.94 in 7.0 mi West 11.5 mph - 0.00 in   Overcast